Location: Bonningues
(50.7927°N, 2.0150°E)
Time: 06:10:28
(UTC+00:00)

Meteor 1-4 Rocket - Pass Details

Date: 08 August 2020
Orbit: 449 x 502 km, 81.2° (Epoch: 23 September)

Event Time Altitude Azimuth Distance (km) Brightness Sun altitude
Rises 20:13:59 0° 354° (N) 2,498 6.9 -7.5°
Reaches altitude 10° 20:16:12 10° 3° (N) 1,610 5.7 -7.7°
Maximum altitude 20:19:28 36° 71° (ENE) 748 3.2 -8.2°
Enters shadow 20:22:27 11° 138° (SE) 1,498 4.4 -8.5°
